Location: Wildlife_Club
(35.6000°N, 81.4330°W)
Time: 04:18:45
(UTC-04:00)

A-11 Canister half - Pass Details

Date: 04 July 2019
Orbit: 1514 x 1685 km, 47.2° (Epoch: 16 July)

Event Time Altitude Azimuth Distance (km) Brightness Sun altitude
Rises 10:51:58 0° 275° (W) 4,931 11.3 53.5°
Reaches altitude 10° 10:55:26 10° 282° (WNW) 3,933 10.9 54.2°
Maximum altitude 11:04:55 44° 352° (N) 2,167 10.2 56.1°
Drops below altitude 10° 11:14:10 10° 62° (ENE) 3,825 11.6 57.9°
Sets 11:17:29 0° 69° (ENE) 4,786 12.0 58.6°
